TimeCDT,TemperatureF,Dew PointF,Humidity,Sea Level PressureIn,VisibilityMPH,Wind Direction,Wind SpeedMPH,Gust SpeedMPH,PrecipitationIn,Events,Conditions,WindDirDegrees,DateUTC
12:53 AM,75.0,71.1,87,30.10,10.0,NE,4.6,-,N/A,,Mostly Cloudy,40,2013-07-17 05:53:00
1:53 AM,75.0,71.1,87,30.09,10.0,NE,6.9,-,N/A,,Mostly Cloudy,40,2013-07-17 06:53:00
2:53 AM,75.0,71.1,87,30.09,10.0,NNE,5.8,-,N/A,,Mostly Cloudy,30,2013-07-17 07:53:00
3:37 AM,75.2,71.6,89,30.12,10.0,NNE,6.9,-,N/A,,Overcast,30,2013-07-17 08:37:00
3:53 AM,75.0,71.1,87,30.09,10.0,NE,6.9,-,0.00,Rain,Light Rain,40,2013-07-17 08:53:00
4:53 AM,75.0,72.0,90,30.09,10.0,NE,5.8,-,0.00,,Overcast,40,2013-07-17 09:53:00
5:42 AM,75.2,71.6,89,30.13,10.0,East,6.9,-,N/A,,Overcast,80,2013-07-17 10:42:00
5:53 AM,73.9,72.0,93,30.10,10.0,East,4.6,-,N/A,,Overcast,80,2013-07-17 10:53:00
6:40 AM,73.4,73.4,100,30.14,2.0,East,3.5,-,N/A,,Overcast,80,2013-07-17 11:40:00
6:53 AM,75.0,73.0,94,30.11,2.0,East,4.6,-,N/A,,Overcast,100,2013-07-17 11:53:00
7:40 AM,75.2,71.6,89,30.16,2.0,ENE,4.6,-,N/A,,Overcast,70,2013-07-17 12:40:00
7:53 AM,75.9,72.0,87,30.13,2.0,ENE,5.8,-,N/A,,Overcast,60,2013-07-17 12:53:00
7:56 AM,75.2,71.6,89,30.16,3.0,ENE,6.9,-,N/A,,Overcast,60,2013-07-17 12:56:00
8:48 AM,77.0,71.6,83,30.16,3.0,ENE,4.6,-,N/A,,Haze,60,2013-07-17 13:48:00
8:53 AM,77.0,72.0,84,30.13,6.0,East,4.6,-,N/A,,Haze,80,2013-07-17 13:53:00
9:53 AM,80.1,72.0,76,30.15,10.0,ENE,9.2,-,N/A,,Overcast,60,2013-07-17 14:53:00
10:32 AM,82.4,71.6,70,30.19,10.0,ENE,10.4,-,N/A,,Overcast,60,2013-07-17 15:32:00
10:53 AM,82.0,72.0,71,30.15,10.0,ENE,11.5,16.1,N/A,,Mostly Cloudy,70,2013-07-17 15:53:00
11:06 AM,82.4,71.6,70,30.18,10.0,East,9.2,-,N/A,,Mostly Cloudy,80,2013-07-17 16:06:00
11:53 AM,84.0,72.0,67,30.14,10.0,East,10.4,-,N/A,,Mostly Cloudy,90,2013-07-17 16:53:00
12:53 PM,86.0,70.0,59,30.12,10.0,ENE,11.5,-,N/A,,Mostly Cloudy,70,2013-07-17 17:53:00
1:53 PM,90.0,69.1,50,30.10,10.0,East,12.7,20.7,N/A,,Mostly Cloudy,90,2013-07-17 18:53:00
2:53 PM,90.0,68.0,48,30.07,10.0,East,11.5,17.3,N/A,,Mostly Cloudy,80,2013-07-17 19:53:00
3:50 PM,78.8,69.8,74,30.13,10.0,South,23.0,39.1,N/A,,Mostly Cloudy,180,2013-07-17 20:50:00
3:53 PM,78.1,71.1,79,30.10,10.0,South,19.6,35.7,N/A,,Mostly Cloudy,170,2013-07-17 20:53:00
4:00 PM,78.8,71.6,78,30.13,10.0,South,20.7,28.8,0.00,Rain,Light Rain,170,2013-07-17 21:00:00
4:23 PM,73.4,71.6,94,30.16,1.0,SSE,18.4,25.3,0.26,Rain,Heavy Rain,160,2013-07-17 21:23:00
4:40 PM,73.4,71.6,94,30.15,2.0,SSE,11.5,-,0.48,Rain,Rain,160,2013-07-17 21:40:00
4:53 PM,73.0,71.1,93,30.13,3.0,SSE,8.1,-,0.52,Rain-Thunderstorm,Light Thunderstorms and Rain,160,2013-07-17 21:53:00
5:42 PM,73.4,71.6,94,30.14,8.0,Calm,Calm,-,0.07,Rain,Light Rain,0,2013-07-17 22:42:00
5:53 PM,73.0,71.1,93,30.12,8.0,South,3.5,-,0.08,Rain,Light Rain,190,2013-07-17 22:53:00
6:53 PM,73.9,72.0,93,30.12,10.0,Calm,Calm,-,0.04,Rain,Light Rain,0,2013-07-17 23:53:00
7:53 PM,75.0,72.0,90,30.13,10.0,East,3.5,-,0.01,,Overcast,90,2013-07-18 00:53:00
8:53 PM,73.9,72.0,93,30.14,10.0,ENE,3.5,-,N/A,,Overcast,60,2013-07-18 01:53:00
9:53 PM,73.9,72.0,93,30.13,10.0,Calm,Calm,-,N/A,,Mostly Cloudy,0,2013-07-18 02:53:00
10:53 PM,73.0,72.0,96,30.14,10.0,Calm,Calm,-,N/A,,Mostly Cloudy,0,2013-07-18 03:53:00
11:53 PM,73.0,71.1,93,30.15,10.0,Calm,Calm,-,N/A,,Mostly Cloudy,0,2013-07-18 04:53:00